星链-3745 (STARLINK-3745 )

导读 | 豆包AI

STARLINK-3745是美国SpaceX公司星链(Starlink)星座中的一颗低轨道卫星,于2022年4月21日发射入轨。作为星链全球卫星互联网星座的组成部分,它运行在近地轨道,依托星链的相控阵天线、星间链路等技术,为全球偏远地区、特殊场景提供高速低延迟的宽带互联网接入服务,支撑星链实现全球网络覆盖的战略目标。

基本信息
目录编号:
52308
目录名称:
STARLINK-3745
国际标识:
2022-041AZ
轨道中心:
EARTH
卫星名称:
星链-3745
卫星全名:
星链-3745 (STARLINK-3745 )
卫星状态:
已陨落 最后检测时间 2024-11-07
发射日期:
2022-04-21 UTC
国别 :
美国 (US)
星等 :
--
轨道信息
数据来源 国际轨道数据
星历时间: 2024-11-07T12:00:59+0800
轨道信息已过期538天
半长轴: 6574.911km
偏心率: 0.0010179
轨道倾角: 53.160°
近地点辐角 321.689°
升交点赤经 66.714°
平近点角 181.433°
近地点: 190.083km
远地点: 203.469km
周期: 88.429分钟
每日圈数: 16.284259
详细信息
固有亮度:
5
最大亮度:
2.5
卫星平台:
Starlink v1.5
覆盖范围:
全球
运营商:
太空探索技术公司
运营商所在国:
美国
制造商(研发单位):
太空探索技术公司
制造商所在国:
美国
使用方式:
暂无
卫星简介
星链(Starlink)计划是由太空探索技术公司(SpaceX)提出的一个巨型低轨卫星互联网星座项目,计划在2019年至2024年间在太空搭建由约1.2万颗卫星组成的“星链”网络,其中1584颗将部署在地球上空550千米处的近地轨道,并从2020年开始工作。该卫星已退役。